Regional Weather Roundup
Issued by NWS

Home | Current Version | Previous Version | Text Only | Print | Product List | Glossary Off
Versions: 1 2 3 4 5 6 7 8 9 10 11 12 13 14 15 16 17 18 19 20 21 22 23 24 25 26 27 28 29 30 31 32 33 34 35 36 37 38 39 40 41 42 43 44 45 46 47 48 49 50

000
ASUS43 KLOT 310606
RWRIL

ILLINOIS REGIONAL WEATHER ROUNDUP
NATIONAL WEATHER SERVICE CHICAGO/ROMEOVILLE IL
100 AM CDT FRI OCT 31 2014

NOTE: "FAIR" INDICATES FEW OR NO CLOUDS BELOW 12,000 FEET WITH NO
SIGNIFICANT WEATHER AND/OR OBSTRUCTIONS TO VISIBILITY.

* THESE STATIONS ARE NOT UNDER NWS QUALITY CONTROL. THEY ALSO MAY NOT
  REPORT WEATHER SUCH AS PRECIPITATION OR FOG.

ILZ001-002-007-009-015-016-024-310700-
NORTHWEST ILLINOIS

CITY           SKY/WX    TMP DP  RH WIND       PRES   REMARKS
MOLINE         CLOUDY    49  37  63 NW13      30.11R
6HR MIN TEMP:  45; 6HR MAX TEMP:  49;

STERLING*      CLOUDY    46  37  71 NW12      30.08S
SAVANNA*       CLOUDY    48  37  67 NW10G17   30.10S
$$

ILZ003-004-008-010-011-017-018-310700-
NORTH CENTRAL ILLINOIS

CITY           SKY/WX    TMP DP  RH WIND       PRES   REMARKS
ROCKFORD       CLOUDY    47  37  68 NW12      30.07F
6HR MIN TEMP:  46; 6HR MAX TEMP:  48; 6HR PCP: TRACE;

FREEPORT*      CLOUDY    45  37  73 NW12G18   30.09S
ROCHELLE*      LGT RAIN  45  38  78 NW8       30.06F
DE KALB*       CLOUDY    44  37  77 NW8       30.05F
PERU*          CLOUDY    45  40  81 W7        30.07F
$$

ILZ005-006-012>014-019>023-310700-
NORTHEAST ILLINOIS

CITY           SKY/WX    TMP DP  RH WIND       PRES   REMARKS
CHICAGO-OHARE  CLOUDY    47  36  65 W9        30.02F
6HR MIN TEMP:  45; 6HR MAX TEMP:  48;

CHICAGO-MIDWAY LGT RAIN  48  37  65 W8        30.03F
6HR MIN TEMP:  48; 6HR MAX TEMP:  50; 6HR PCP: TRACE;

AURORA         CLOUDY    45  37  73 W7        30.05F
6HR MIN TEMP:  41; 6HR MAX TEMP:  48;

LANSING*       CLOUDY    45  37  76 W5        30.03F
JOLIET*        LGT RAIN  44  37  76 W5        30.04F
WAUKEGAN       CLOUDY    45  37  73 W7        30.01F
6HR MIN TEMP:  42; 6HR MAX TEMP:  48; 6HR PCP: TRACE;

DUPAGE AIRPORT CLOUDY    46  37  71 W9        30.03F
6HR MIN TEMP:  44; 6HR MAX TEMP:  48; 6HR PCP: TRACE;

KANKAKEE*      CLOUDY    42  39  88 W6        30.05F
WHEELING       CLOUDY    48  36  63 NW8       30.04F
6HR MIN TEMP:  48; 6HR MAX TEMP:  50;

MORRIS*        CLOUDY    45  40  82 W8        30.04F
ROMEOVILLE*    CLOUDY    45  37  74 W6        30.04F
NORTHERLY ISL    N/A     48  36  63 NW5         N/A
$$

LMZ740>746-310700-
SOUTHERN LAKE MICHIGAN

STATION/POSITION SKY/WX   TEMP    WIND        PRES    VSBY  WAVE
                          AIR SEA DIR/SP/G                  HT/PER
                          (F)     (DEG/KT/KT) (MB)    (MI)  (FT/S)
SOUTHERN BUOY              49 53  300/ 17/ 21 1015.6F         2/ 4
WAUKEGAN HARBOR            47     300/ 12/ 15   N/A
HARRISON CRIB              49     270/ 11/ 14   N/A
BURNHAM HARBOR             48     270/  2/  8   N/A
CALUMET HARBOR             47     250/  4/  6 1015.6F
MICHIGAN CITY              50     260/ 18/ 20   N/A
$$

ILZ025>027-034>036-040-047-049-050-058-095>099-310700-
WEST-CENTRAL ILLINOIS

CITY           SKY/WX    TMP DP  RH WIND       PRES   REMARKS
QUINCY         CLOUDY    46  41  82 N7        30.10S
GALESBURG*     CLOUDY    44  41  90 CALM      30.11S
MACOMB*        CLOUDY    44  42  93 N3        30.13S
JACKSONVILLE*  CLOUDY    44  42  92 N3        30.09R
PITTSFIELD*    MOCLDY    46  43  87 N3        30.11R
$$

ILZ028>032-037-038-041>044-048-051>054-059>061-310700-
CENTRAL ILLINOIS

CITY           SKY/WX    TMP DP  RH WIND       PRES   REMARKS
PONTIAC        CLOUDY    44  42  93 W3        30.07F
BLOOMINGTON    MOCLDY    43  42  96 N6        30.08S
DECATUR        CLOUDY    46  44  93 CALM      30.06F
PEORIA         CLOUDY    46  41  82 NW3       30.09S
6HR MIN TEMP:  45; 6HR MAX TEMP:  47;

LACON*         CLOUDY    44  40  85 W3        30.08S
LINCOLN*       MOCLDY    44  42  93 CALM      30.07R
SPRINGFIELD    MOCLDY    46  43  89 CALM      30.08S
6HR MIN TEMP:  45; 6HR MAX TEMP:  51;

TAYLORVILLE    MOCLDY    45  43  93 N6        30.06S
$$

ILZ033-039-045-046-055>057-062-063-310700-
EAST-CENTRAL ILLINOIS

CITY           SKY/WX    TMP DP  RH WIND       PRES   REMARKS
CHAMPAIGN      CLOUDY    44  42  93 N7        30.05F
DANVILLE*      CLOUDY    43  41  93 CALM      30.02F
RANTOUL*       CLOUDY    45  42  89 NW5       30.06R
MATTOON        CLOUDY    46  44  93 NE3       30.05S
PARIS*         MOCLDY    46  44  95 CALM      30.06F
$$

ILZ079-100>102-310700-
SOUTHWEST ILLINOIS

CITY           SKY/WX    TMP DP  RH WIND       PRES   REMARKS
ALTON          CLOUDY    49  45  88 CALM      30.06R
BELLEVILLE     CLOUDY    49  48  98 NW5       30.04R
CAHOKIA*       MOCLDY    48  45  89 NW3       30.05R
SPARTA*        CLOUDY    48  47  99 CALM      30.04S
$$

ILZ064>066-069>071-074>076-080>082-084>086-088>090-092>094-310700-
SOUTH-CENTRAL ILLINOIS

CITY           SKY/WX    TMP DP  RH WIND       PRES   REMARKS
CARBONDALE     CLOUDY    51  48  89 CALM      30.03S
6HR MIN TEMP:  51; 6HR MAX TEMP:  56; 6HR PCP:  0.01;

CAIRO*         CLOUDY    55  51  87 CALM      30.01F
EFFINGHAM*     CLOUDY    47  44  87 CALM      30.05F
MARION         CLOUDY    52  50  93 CALM      30.03S
MT. VERNON     CLOUDY    48  45  87 N6        30.04S
CENTRALIA*     CLOUDY    48  45  87 NE5       30.04S
SALEM*         CLOUDY    50  48  93 NE3       30.05S
METROPOLIS*    CLOUDY    51  51 100 CALM      30.01S
$$

ILZ067-068-072-073-078-083-087-091-310700-
SOUTHEAST ILLINOIS

CITY           SKY/WX    TMP DP  RH WIND       PRES   REMARKS
LAWRENCEVILLE  LGT RAIN  47  45  93 NE3       30.05F
FLORA*         MOCLDY    47  45  91 NE5       30.05S
FAIRFIELD*     CLOUDY    49  46  92 NE5       30.04S
HARRISBURG*    LGT RAIN  50  49  98 CALM      30.04S
ROBINSON*      CLOUDY    48  46  93 CALM      30.06F
CARMI*         CLOUDY    51  48  90 N5        30.03S
$$

ABBREVIATIONS USED IN REMARKS
   TC - TEMPERATURE IN CELSIUS
  WCI - WIND CHILL INDEX
   HX - HEAT INDEX
  VSB - VISIBILITY
$$




USA.gov is the U.S. government's official web portal to all federal, state and local government web resources and services.